VK5TRM-13 Weather Reports


time (UTC)temp
C
wind
direction
speed
KPH
gust
KPH
rain 1hr
cm
rain 24hr
cm
rain mn
cm
humidity
%
barometer
mb
20260505041505 16 225 11.3 14.5 0.00 0.00 0.03 68 1022.8
20260505040005 16 247 12.9 19.3 0.00 0.00 0.03 69 1023.0
20260505034505 16 247 12.9 19.3 0.00 0.00 0.03 69 1023.0
20260505033004 16 225 12.9 16.1 0.00 0.00 0.03 71 1023.3
20260505031505 16 225 12.9 16.1 0.00 0.00 0.03 71 1023.3
20260505030005 16 225 11.3 12.9 0.00 0.00 0.03 72 1023.7
20260505024504 16 225 11.3 12.9 0.00 0.00 0.03 72 1023.7
20260505023004 16 202 9.7 12.9 0.00 0.00 0.00 72 1023.9
20260505021505 16 202 9.7 12.9 0.00 0.00 0.00 72 1023.9
20260505020005 16 247 12.9 24.1 0.00 0.00 0.00 73 1024.0
20260505014504 16 247 12.9 24.1 0.00 0.00 0.00 73 1024.0
20260505013005 15 225 14.5 20.9 0.00 0.00 0.00 75 1023.9
20260505011505 15 225 14.5 20.9 0.00 0.00 0.00 75 1023.9
20260505010005 15 225 14.5 19.3 0.00 0.00 0.00 77 1023.7
20260505004505 15 225 14.5 19.3 0.00 0.00 0.00 77 1023.7
20260505003005 15 225 12.9 16.1 0.00 0.00 0.00 81 1023.6
20260505001504 15 225 12.9 16.1 0.00 0.00 0.00 81 1023.6
20260505000005 13 247 11.3 14.5 0.00 0.00 0.00 86 1023.4
20260504234505 13 247 11.3 14.5 0.00 0.00 0.00 86 1023.4
20260504233005 12 247 11.3 14.5 0.00 0.00 0.00 90 1023.4
20260504231505 12 247 11.3 14.5 0.00 0.00 0.00 90 1023.4
20260504230005 11 225 12.9 19.3 0.00 0.00 0.00 92 1023.0
20260504224504 11 225 12.9 19.3 0.00 0.00 0.00 92 1023.0
20260504223005 11 247 12.9 16.1 0.00 0.00 0.00 94 1022.6
20260504221504 11 247 12.9 16.1 0.00 0.00 0.00 94 1022.6
20260504220004 10 270 9.7 11.3 0.00 0.00 0.00 95 1022.1
20260504214504 10 270 9.7 11.3 0.00 0.00 0.00 95 1022.1
20260504213004 9 270 9.7 12.9 0.00 0.00 0.00 96 1021.8
20260504211505 9 270 9.7 12.9 0.00 0.00 0.00 96 1021.8
20260504210005 9 270 9.7 11.3 0.00 0.00 0.00 95 1021.5
20260504204505 9 270 9.7 11.3 0.00 0.00 0.00 95 1021.5
20260504203005 9 270 8.0 9.7 0.00 0.00 0.00 95 1021.3
20260504201504 9 270 8.0 9.7 0.00 0.00 0.00 95 1021.3
20260504200005 9 292 8.0 9.7 0.00 0.00 0.00 95 1021.1
20260504194505 9 292 8.0 9.7 0.00 0.00 0.00 95 1021.1
20260504193005 9 270 8.0 9.7 0.00 0.00 0.00 95 1020.9
20260504191504 9 270 8.0 9.7 0.00 0.00 0.00 95 1020.9
20260504190004 9 270 8.0 11.3 0.00 0.00 0.00 95 1020.8
20260504184505 9 270 8.0 11.3 0.00 0.00 0.00 95 1020.8
20260504183005 9 292 8.0 8.0 0.00 0.00 0.00 95 1020.6
20260504181505 9 292 8.0 8.0 0.00 0.00 0.00 95 1020.6
20260504180005 10 292 8.0 9.7 0.00 0.00 0.00 93 1020.6
20260504174505 10 292 8.0 9.7 0.00 0.00 0.00 93 1020.6
20260504173004 10 292 11.3 12.9 0.00 0.00 0.00 94 1020.7
20260504171506 10 292 11.3 12.9 0.00 0.00 0.00 94 1020.7
20260504081505 17 225 14.5 24.1 0.00 0.00 0.00 59 1015.9
20260504050004 20 292 24.1 35.4 0.00 0.00 0.00 52 1014.1